owner,sensor,date,latitude,longitude,vertical_datum,wind_speed,wind_to_direction,wind_speed_of_gust,qcFlag 
TCOON,ioos:station:TCOON:524:1,2015-09-01T00:00:00Z,29.8672,-93.9310,0.0,0.9,213.0,1.9,'11111222,11111222,11111222' 
TCOON,ioos:station:TCOON:524:1,2015-09-01T00:06:00Z,29.8672,-93.9310,0.0,0.9,192.0,1.3,'11111222,11111222,11111222' 
TCOON,ioos:station:TCOON:524:1,2015-09-01T00:12:00Z,29.8672,-93.9310,0.0,0.1,194.0,1.0,'11111222,11111222,11111222' 
TCOON,ioos:station:TCOON:524:1,2015-09-01T00:18:00Z,29.8672,-93.9310,0.0,0.8,227.0,1.1,'11111222,11111222,11111222' 
TCOON,ioos:station:TCOON:524:1,2015-09-01T00:24:00Z,29.8672,-93.9310,0.0,1.2,286.0,1.6,'11111222,11111222,11111222' 
TCOON,ioos:station:TCOON:524:1,2015-09-01T00:30:00Z,29.8672,-93.9310,0.0,1.0,315.0,1.4,'11111222,11111222,11111222' 
TCOON,ioos:station:TCOON:524:1,2015-09-01T00:36:00Z,29.8672,-93.9310,0.0,1.2,319.0,1.5,'11111222,11111222,11111222' 
TCOON,ioos:station:TCOON:524:1,2015-09-01T00:42:00Z,29.8672,-93.9310,0.0,0.9,301.0,1.4,'11111222,11111222,11111222' 
TCOON,ioos:station:TCOON:524:1,2015-09-01T00:48:00Z,29.8672,-93.9310,0.0,0.6,190.0,1.1,'11111222,11111222,11111222' 
TCOON,ioos:station:TCOON:524:1,2015-09-01T00:54:00Z,29.8672,-93.9310,0.0,0.8,164.0,1.0,'11111222,11111222,11111222' 
TCOON,ioos:station:TCOON:524:1,2015-09-01T01:00:00Z,29.8672,-93.9310,0.0,1.0,179.0,1.6,'11111222,11111222,11111222' 
TCOON,ioos:station:TCOON:524:1,2015-09-01T01:06:00Z,29.8672,-93.9310,0.0,1.0,182.0,1.5,'11111222,11111222,11111222' 
TCOON,ioos:station:TCOON:524:1,2015-09-01T01:12:00Z,29.8672,-93.9310,0.0,0.9,140.0,1.8,'11111222,11111222,11111222' 
TCOON,ioos:station:TCOON:524:1,2015-09-01T01:18:00Z,29.8672,-93.9310,0.0,1.3,143.0,1.7,'11111222,11111222,11111222' 
TCOON,ioos:station:TCOON:524:1,2015-09-01T01:24:00Z,29.8672,-93.9310,0.0,0.8,140.0,1.2,'11111222,11111222,11111222' 
TCOON,ioos:station:TCOON:524:1,2015-09-01T01:30:00Z,29.8672,-93.9310,0.0,0.5,134.0,1.0,'11111222,11111222,11111222' 
TCOON,ioos:station:TCOON:524:1,2015-09-01T01:36:00Z,29.8672,-93.9310,0.0,0.9,184.0,1.3,'11111222,11111222,11111222' 
TCOON,ioos:station:TCOON:524:1,2015-09-01T01:42:00Z,29.8672,-93.9310,0.0,0.0,203.0,1.3,'11111222,11111222,11111222' 
TCOON,ioos:station:TCOON:524:1,2015-09-01T01:48:00Z,29.8672,-93.9310,0.0,0.0,190.0,0.0,'11111222,11111222,11111222' 
TCOON,ioos:station:TCOON:524:1,2015-09-01T01:54:00Z,29.8672,-93.9310,0.0,0.0,161.0,0.0,'11111222,11111222,11111222' 
TCOON,ioos:station:TCOON:524:1,2015-09-01T02:00:00Z,29.8672,-93.9310,0.0,0.0,160.0,0.0,'11111222,11111222,11111222' 
TCOON,ioos:station:TCOON:524:1,2015-09-01T02:06:00Z,29.8672,-93.9310,0.0,0.0,159.0,0.0,'11111222,11111222,11111222' 
TCOON,ioos:station:TCOON:524:1,2015-09-01T02:12:00Z,29.8672,-93.9310,0.0,0.5,111.0,1.0,'11111222,11111222,11111222' 
TCOON,ioos:station:TCOON:524:1,2015-09-01T02:18:00Z,29.8672,-93.9310,0.0,1.1,142.0,1.3,'11111222,11111222,11111222' 
TCOON,ioos:station:TCOON:524:1,2015-09-01T02:24:00Z,29.8672,-93.9310,0.0,1.0,136.0,1.2,'11111222,11111222,11111222' 
TCOON,ioos:station:TCOON:524:1,2015-09-01T02:30:00Z,29.8672,-93.9310,0.0,1.1,134.0,1.3,'11111222,11111222,11111222' 
TCOON,ioos:station:TCOON:524:1,2015-09-01T02:36:00Z,29.8672,-93.9310,0.0,2.0,122.0,2.6,'11111222,11111222,11111222' 
TCOON,ioos:station:TCOON:524:1,2015-09-01T02:42:00Z,29.8672,-93.9310,0.0,2.1,117.0,3.1,'11111222,11111222,11111222' 
TCOON,ioos:station:TCOON:524:1,2015-09-01T02:48:00Z,29.8672,-93.9310,0.0,1.8,122.0,2.6,'11111222,11111222,11111222' 
TCOON,ioos:station:TCOON:524:1,2015-09-01T02:54:00Z,29.8672,-93.9310,0.0,2.6,121.0,3.6,'11111222,11111222,11111222' 
TCOON,ioos:station:TCOON:524:1,2015-09-01T03:00:00Z,29.8672,-93.9310,0.0,2.7,131.0,3.9,'11111222,11111222,11111222' 
TCOON,ioos:station:TCOON:524:1,2015-09-01T03:06:00Z,29.8672,-93.9310,0.0,1.9,131.0,3.4,'11111222,11111222,11111222' 
TCOON,ioos:station:TCOON:524:1,2015-09-01T03:12:00Z,29.8672,-93.9310,0.0,2.0,125.0,3.0,'11111222,11111222,11111222' 
TCOON,ioos:station:TCOON:524:1,2015-09-01T03:18:00Z,29.8672,-93.9310,0.0,2.7,132.0,3.8,'11111222,11111222,11111222' 
TCOON,ioos:station:TCOON:524:1,2015-09-01T03:24:00Z,29.8672,-93.9310,0.0,3.1,140.0,4.7,'11111222,11111222,11111222' 
TCOON,ioos:station:TCOON:524:1,2015-09-01T03:30:00Z,29.8672,-93.9310,0.0,2.7,147.0,4.3,'11111222,11111222,11111222' 
TCOON,ioos:station:TCOON:524:1,2015-09-01T03:36:00Z,29.8672,-93.9310,0.0,1.6,155.0,3.4,'11111222,11111222,11111222' 
TCOON,ioos:station:TCOON:524:1,2015-09-01T03:42:00Z,29.8672,-93.9310,0.0,1.8,149.0,2.7,'11111222,11111222,11111222' 
TCOON,ioos:station:TCOON:524:1,2015-09-01T03:48:00Z,29.8672,-93.9310,0.0,1.4,153.0,2.4,'11111222,11111222,11111222' 
TCOON,ioos:station:TCOON:524:1,2015-09-01T03:54:00Z,29.8672,-93.9310,0.0,1.5,154.0,2.4,'11111222,11111222,11111222' 
TCOON,ioos:station:TCOON:524:1,2015-09-01T04:00:00Z,29.8672,-93.9310,0.0,1.7,150.0,2.8,'11111222,11111222,11111222' 
TCOON,ioos:station:TCOON:524:1,2015-09-01T04:06:00Z,29.8672,-93.9310,0.0,1.6,163.0,2.9,'11111222,11111222,11111222' 
TCOON,ioos:station:TCOON:524:1,2015-09-01T04:12:00Z,29.8672,-93.9310,0.0,0.6,191.0,2.6,'11111222,11111222,11111222' 
TCOON,ioos:station:TCOON:524:1,2015-09-01T04:18:00Z,29.8672,-93.9310,0.0,0.9,163.0,1.6,'11111222,11111222,11111222' 
TCOON,ioos:station:TCOON:524:1,2015-09-01T04:24:00Z,29.8672,-93.9310,0.0,0.9,164.0,1.6,'11111222,11111222,11111222' 
TCOON,ioos:station:TCOON:524:1,2015-09-01T04:30:00Z,29.8672,-93.9310,0.0,1.2,194.0,1.7,'11111222,11111222,11111222' 
TCOON,ioos:station:TCOON:524:1,2015-09-01T04:36:00Z,29.8672,-93.9310,0.0,1.0,164.0,1.6,'11111222,11111222,11111222' 
TCOON,ioos:station:TCOON:524:1,2015-09-01T04:42:00Z,29.8672,-93.9310,0.0,3.3,153.0,4.9,'11111222,11111222,11111222' 
TCOON,ioos:station:TCOON:524:1,2015-09-01T04:48:00Z,29.8672,-93.9310,0.0,2.6,154.0,5.4,'11111222,11111222,11111222' 
TCOON,ioos:station:TCOON:524:1,2015-09-01T04:54:00Z,29.8672,-93.9310,0.0,3.4,150.0,5.6,'11111222,11111222,11111222' 
TCOON,ioos:station:TCOON:524:1,2015-09-01T05:00:00Z,29.8672,-93.9310,0.0,2.9,151.0,5.3,'11111222,11111222,11111222' 
TCOON,ioos:station:TCOON:524:1,2015-09-01T05:06:00Z,29.8672,-93.9310,0.0,2.4,156.0,4.5,'11111222,11111222,11111222' 
TCOON,ioos:station:TCOON:524:1,2015-09-01T05:12:00Z,29.8672,-93.9310,0.0,2.1,163.0,3.9,'11111222,11111222,11111222' 
TCOON,ioos:station:TCOON:524:1,2015-09-01T05:18:00Z,29.8672,-93.9310,0.0,1.8,169.0,2.9,'11111222,11111222,11111222' 
TCOON,ioos:station:TCOON:524:1,2015-09-01T05:24:00Z,29.8672,-93.9310,0.0,1.8,169.0,2.7,'11111222,11111222,11111222' 
TCOON,ioos:station:TCOON:524:1,2015-09-01T05:30:00Z,29.8672,-93.9310,0.0,1.7,159.0,3.3,'11111222,11111222,11111222' 
TCOON,ioos:station:TCOON:524:1,2015-09-01T05:36:00Z,29.8672,-93.9310,0.0,2.3,156.0,4.2,'11111222,11111222,11111222' 
TCOON,ioos:station:TCOON:524:1,2015-09-01T05:42:00Z,29.8672,-93.9310,0.0,2.7,153.0,4.0,'11111222,11111222,11111222' 
TCOON,ioos:station:TCOON:524:1,2015-09-01T05:48:00Z,29.8672,-93.9310,0.0,2.4,154.0,3.6,'11111222,11111222,11111222' 
TCOON,ioos:station:TCOON:524:1,2015-09-01T05:54:00Z,29.8672,-93.9310,0.0,1.9,153.0,3.4,'11111222,11111222,11111222' 
TCOON,ioos:station:TCOON:524:1,2015-09-01T06:00:00Z,29.8672,-93.9310,0.0,2.3,159.0,3.5,'11111222,11111222,11111222' 
TCOON,ioos:station:TCOON:524:1,2015-09-01T06:06:00Z,29.8672,-93.9310,0.0,1.4,158.0,3.1,'11111222,11111222,11111222' 
TCOON,ioos:station:TCOON:524:1,2015-09-01T06:12:00Z,29.8672,-93.9310,0.0,1.9,185.0,2.4,'11111222,11111222,11111222' 
TCOON,ioos:station:TCOON:524:1,2015-09-01T06:18:00Z,29.8672,-93.9310,0.0,1.4,197.0,2.3,'11111222,11111222,11111222' 
TCOON,ioos:station:TCOON:524:1,2015-09-01T06:24:00Z,29.8672,-93.9310,0.0,1.4,178.0,2.0,'11111222,11111222,11111222' 
TCOON,ioos:station:TCOON:524:1,2015-09-01T06:30:00Z,29.8672,-93.9310,0.0,1.2,190.0,1.8,'11111222,11111222,11111222' 
TCOON,ioos:station:TCOON:524:1,2015-09-01T06:36:00Z,29.8672,-93.9310,0.0,1.5,187.0,2.8,'11111222,11111222,11111222' 
TCOON,ioos:station:TCOON:524:1,2015-09-01T06:42:00Z,29.8672,-93.9310,0.0,1.2,188.0,2.5,'11111222,11111222,11111222' 
TCOON,ioos:station:TCOON:524:1,2015-09-01T06:48:00Z,29.8672,-93.9310,0.0,1.3,179.0,2.3,'11111222,11111222,11111222' 
TCOON,ioos:station:TCOON:524:1,2015-09-01T06:54:00Z,29.8672,-93.9310,0.0,1.6,190.0,2.1,'11111222,11111222,11111222' 
TCOON,ioos:station:TCOON:524:1,2015-09-01T07:00:00Z,29.8672,-93.9310,0.0,1.3,184.0,2.3,'11111222,11111222,11111222' 
TCOON,ioos:station:TCOON:524:1,2015-09-01T07:06:00Z,29.8672,-93.9310,0.0,1.0,195.0,2.2,'11111222,11111222,11111222' 
TCOON,ioos:station:TCOON:524:1,2015-09-01T07:12:00Z,29.8672,-93.9310,0.0,1.3,176.0,1.9,'11111222,11111222,11111222' 
TCOON,ioos:station:TCOON:524:1,2015-09-01T07:18:00Z,29.8672,-93.9310,0.0,1.6,186.0,2.3,'11111222,11111222,11111222' 
TCOON,ioos:station:TCOON:524:1,2015-09-01T07:24:00Z,29.8672,-93.9310,0.0,0.9,162.0,1.8,'11111222,11111222,11111222' 
TCOON,ioos:station:TCOON:524:1,2015-09-01T07:30:00Z,29.8672,-93.9310,0.0,1.0,177.0,1.6,'11111222,11111222,11111222' 
TCOON,ioos:station:TCOON:524:1,2015-09-01T07:36:00Z,29.8672,-93.9310,0.0,1.2,183.0,1.9,'11111222,11111222,11111222' 
TCOON,ioos:station:TCOON:524:1,2015-09-01T07:42:00Z,29.8672,-93.9310,0.0,1.4,181.0,2.4,'11111222,11111222,11111222' 
TCOON,ioos:station:TCOON:524:1,2015-09-01T07:48:00Z,29.8672,-93.9310,0.0,1.4,169.0,3.2,'11111222,11111222,11111222' 
TCOON,ioos:station:TCOON:524:1,2015-09-01T07:54:00Z,29.8672,-93.9310,0.0,1.4,183.0,2.1,'11111222,11111222,11111222' 
TCOON,ioos:station:TCOON:524:1,2015-09-01T08:00:00Z,29.8672,-93.9310,0.0,1.2,195.0,1.9,'11111222,11111222,11111222' 
TCOON,ioos:station:TCOON:524:1,2015-09-01T08:06:00Z,29.8672,-93.9310,0.0,0.6,202.0,1.4,'11111222,11111222,11111222' 
TCOON,ioos:station:TCOON:524:1,2015-09-01T08:12:00Z,29.8672,-93.9310,0.0,1.0,186.0,1.3,'11111222,11111222,11111222' 
TCOON,ioos:station:TCOON:524:1,2015-09-01T08:18:00Z,29.8672,-93.9310,0.0,0.7,181.0,1.2,'11111222,11111222,11111222' 
TCOON,ioos:station:TCOON:524:1,2015-09-01T08:24:00Z,29.8672,-93.9310,0.0,1.0,186.0,1.5,'11111222,11111222,11111222' 
TCOON,ioos:station:TCOON:524:1,2015-09-01T08:30:00Z,29.8672,-93.9310,0.0,0.8,183.0,1.6,'11111222,11111222,11111222' 
TCOON,ioos:station:TCOON:524:1,2015-09-01T08:36:00Z,29.8672,-93.9310,0.0,1.1,190.0,1.8,'11111222,11111222,11111222' 
TCOON,ioos:station:TCOON:524:1,2015-09-01T08:42:00Z,29.8672,-93.9310,0.0,1.4,179.0,1.8,'11111222,11111222,11111222' 
TCOON,ioos:station:TCOON:524:1,2015-09-01T08:48:00Z,29.8672,-93.9310,0.0,1.0,182.0,1.9,'11111222,11111222,11111222' 
TCOON,ioos:station:TCOON:524:1,2015-09-01T08:54:00Z,29.8672,-93.9310,0.0,1.1,198.0,1.6,'11111222,11111222,11111222' 
TCOON,ioos:station:TCOON:524:1,2015-09-01T09:00:00Z,29.8672,-93.9310,0.0,1.3,198.0,1.9,'11111222,11111222,11111222' 
TCOON,ioos:station:TCOON:524:1,2015-09-01T09:06:00Z,29.8672,-93.9310,0.0,1.2,170.0,1.6,'11111222,11111222,11111222' 
TCOON,ioos:station:TCOON:524:1,2015-09-01T09:12:00Z,29.8672,-93.9310,0.0,1.0,172.0,1.6,'11111222,11111222,11111222' 
TCOON,ioos:station:TCOON:524:1,2015-09-01T09:18:00Z,29.8672,-93.9310,0.0,0.9,181.0,1.4,'11111222,11111222,11111222' 
TCOON,ioos:station:TCOON:524:1,2015-09-01T09:24:00Z,29.8672,-93.9310,0.0,1.2,161.0,1.4,'11111222,11111222,11111222' 
TCOON,ioos:station:TCOON:524:1,2015-09-01T09:30:00Z,29.8672,-93.9310,0.0,1.1,151.0,1.4,'11111222,11111222,11111222' 
TCOON,ioos:station:TCOON:524:1,2015-09-01T09:36:00Z,29.8672,-93.9310,0.0,99.0,-9999.0,99.0,'11144222,99999999,11144222' 
TCOON,ioos:station:TCOON:524:1,2015-09-01T09:42:00Z,29.8672,-93.9310,0.0,99.0,-9999.0,99.0,'11144222,99999999,11144222' 
TCOON,ioos:station:TCOON:524:1,2015-09-01T09:48:00Z,29.8672,-93.9310,0.0,99.0,-9999.0,99.0,'11144222,99999999,11144222' 
TCOON,ioos:station:TCOON:524:1,2015-09-01T09:54:00Z,29.8672,-93.9310,0.0,1.2,172.0,1.6,'11111222,11111222,11111222' 
TCOON,ioos:station:TCOON:524:1,2015-09-01T10:00:00Z,29.8672,-93.9310,0.0,1.3,181.0,1.8,'11111222,11111222,11111222' 
TCOON,ioos:station:TCOON:524:1,2015-09-01T10:06:00Z,29.8672,-93.9310,0.0,0.9,168.0,1.5,'11111222,11111222,11111222' 
TCOON,ioos:station:TCOON:524:1,2015-09-01T10:12:00Z,29.8672,-93.9310,0.0,1.0,152.0,1.4,'11111222,11111222,11111222' 
TCOON,ioos:station:TCOON:524:1,2015-09-01T10:18:00Z,29.8672,-93.9310,0.0,1.3,159.0,1.5,'11111222,11111222,11111222' 
TCOON,ioos:station:TCOON:524:1,2015-09-01T10:24:00Z,29.8672,-93.9310,0.0,1.0,168.0,1.5,'11111222,11111222,11111222' 
TCOON,ioos:station:TCOON:524:1,2015-09-01T10:30:00Z,29.8672,-93.9310,0.0,1.1,153.0,1.4,'11111222,11111222,11111222' 
TCOON,ioos:station:TCOON:524:1,2015-09-01T10:36:00Z,29.8672,-93.9310,0.0,1.3,137.0,1.5,'11111222,11111222,11111222' 
TCOON,ioos:station:TCOON:524:1,2015-09-01T10:42:00Z,29.8672,-93.9310,0.0,0.8,141.0,1.7,'11111222,11111222,11111222' 
TCOON,ioos:station:TCOON:524:1,2015-09-01T10:48:00Z,29.8672,-93.9310,0.0,0.8,166.0,1.0,'11111222,11111222,11111222' 
TCOON,ioos:station:TCOON:524:1,2015-09-01T10:54:00Z,29.8672,-93.9310,0.0,0.9,181.0,1.2,'11111222,11111222,11111222' 
TCOON,ioos:station:TCOON:524:1,2015-09-01T11:00:00Z,29.8672,-93.9310,0.0,1.3,171.0,1.6,'11111222,11111222,11111222' 
TCOON,ioos:station:TCOON:524:1,2015-09-01T11:06:00Z,29.8672,-93.9310,0.0,1.4,168.0,2.1,'11111222,11111222,11111222' 
TCOON,ioos:station:TCOON:524:1,2015-09-01T11:12:00Z,29.8672,-93.9310,0.0,1.2,152.0,2.0,'11111222,11111222,11111222' 
TCOON,ioos:station:TCOON:524:1,2015-09-01T11:18:00Z,29.8672,-93.9310,0.0,0.7,152.0,1.6,'11111222,11111222,11111222' 
TCOON,ioos:station:TCOON:524:1,2015-09-01T11:24:00Z,29.8672,-93.9310,0.0,0.9,171.0,1.2,'11111222,11111222,11111222' 
TCOON,ioos:station:TCOON:524:1,2015-09-01T11:30:00Z,29.8672,-93.9310,0.0,1.0,161.0,1.3,'11111222,11111222,11111222' 
TCOON,ioos:station:TCOON:524:1,2015-09-01T11:36:00Z,29.8672,-93.9310,0.0,1.0,175.0,1.5,'11111222,11111222,11111222' 
TCOON,ioos:station:TCOON:524:1,2015-09-01T11:42:00Z,29.8672,-93.9310,0.0,0.9,165.0,1.4,'11111222,11111222,11111222' 
TCOON,ioos:station:TCOON:524:1,2015-09-01T11:48:00Z,29.8672,-93.9310,0.0,0.5,151.0,1.5,'11111222,11111222,11111222' 
TCOON,ioos:station:TCOON:524:1,2015-09-01T11:54:00Z,29.8672,-93.9310,0.0,0.6,149.0,1.0,'11111222,11111222,11111222' 
TCOON,ioos:station:TCOON:524:1,2015-09-01T12:00:00Z,29.8672,-93.9310,0.0,0.7,132.0,0.9,'11111222,11111222,11111222' 
TCOON,ioos:station:TCOON:524:1,2015-09-01T12:06:00Z,29.8672,-93.9310,0.0,0.4,182.0,0.6,'11111222,11111222,11111222' 
TCOON,ioos:station:TCOON:524:1,2015-09-01T12:12:00Z,29.8672,-93.9310,0.0,0.6,173.0,0.9,'11111222,11111222,11111222' 
TCOON,ioos:station:TCOON:524:1,2015-09-01T12:18:00Z,29.8672,-93.9310,0.0,0.9,171.0,1.2,'11111222,11111222,11111222' 
TCOON,ioos:station:TCOON:524:1,2015-09-01T12:24:00Z,29.8672,-93.9310,0.0,0.7,170.0,1.1,'11111222,11111222,11111222' 
TCOON,ioos:station:TCOON:524:1,2015-09-01T12:30:00Z,29.8672,-93.9310,0.0,0.7,168.0,1.1,'11111222,11111222,11111222' 
TCOON,ioos:station:TCOON:524:1,2015-09-01T12:36:00Z,29.8672,-93.9310,0.0,0.6,155.0,1.1,'11111222,11111222,11111222' 
TCOON,ioos:station:TCOON:524:1,2015-09-01T12:42:00Z,29.8672,-93.9310,0.0,0.5,100.0,1.0,'11111222,11111222,11111222' 
TCOON,ioos:station:TCOON:524:1,2015-09-01T12:48:00Z,29.8672,-93.9310,0.0,0.6,92.0,0.9,'11111222,11111222,11111222' 
TCOON,ioos:station:TCOON:524:1,2015-09-01T12:54:00Z,29.8672,-93.9310,0.0,0.4,82.0,0.8,'11111222,11111222,11111222' 
TCOON,ioos:station:TCOON:524:1,2015-09-01T13:00:00Z,29.8672,-93.9310,0.0,0.6,130.0,0.9,'11111222,11111222,11111222' 
TCOON,ioos:station:TCOON:524:1,2015-09-01T13:06:00Z,29.8672,-93.9310,0.0,1.3,112.0,1.6,'11111222,11111222,11111222' 
TCOON,ioos:station:TCOON:524:1,2015-09-01T13:12:00Z,29.8672,-93.9310,0.0,0.7,91.0,1.6,'11111222,11111222,11111222' 
TCOON,ioos:station:TCOON:524:1,2015-09-01T13:18:00Z,29.8672,-93.9310,0.0,1.0,111.0,1.3,'11111222,11111222,11111222' 
TCOON,ioos:station:TCOON:524:1,2015-09-01T13:24:00Z,29.8672,-93.9310,0.0,1.1,98.0,1.5,'11111222,11111222,11111222' 
TCOON,ioos:station:TCOON:524:1,2015-09-01T13:30:00Z,29.8672,-93.9310,0.0,1.7,84.0,2.3,'11111222,11111222,11111222' 
TCOON,ioos:station:TCOON:524:1,2015-09-01T13:36:00Z,29.8672,-93.9310,0.0,1.9,83.0,2.8,'11111222,11111222,11111222' 
TCOON,ioos:station:TCOON:524:1,2015-09-01T13:42:00Z,29.8672,-93.9310,0.0,1.5,87.0,3.2,'11111222,11111222,11111222' 
TCOON,ioos:station:TCOON:524:1,2015-09-01T13:48:00Z,29.8672,-93.9310,0.0,2.1,84.0,3.3,'11111222,11111222,11111222' 
TCOON,ioos:station:TCOON:524:1,2015-09-01T13:54:00Z,29.8672,-93.9310,0.0,2.2,77.0,3.0,'11111222,11111222,11111222' 
TCOON,ioos:station:TCOON:524:1,2015-09-01T14:00:00Z,29.8672,-93.9310,0.0,1.7,91.0,2.8,'11111222,11111222,11111222' 
TCOON,ioos:station:TCOON:524:1,2015-09-01T14:06:00Z,29.8672,-93.9310,0.0,1.5,92.0,2.2,'11111222,11111222,11111222' 
TCOON,ioos:station:TCOON:524:1,2015-09-01T14:12:00Z,29.8672,-93.9310,0.0,0.6,106.0,2.4,'11111222,11111222,11111222' 
TCOON,ioos:station:TCOON:524:1,2015-09-01T14:18:00Z,29.8672,-93.9310,0.0,1.6,114.0,2.7,'11111222,11111222,11111222' 
TCOON,ioos:station:TCOON:524:1,2015-09-01T14:24:00Z,29.8672,-93.9310,0.0,1.6,114.0,2.7,'1111122,1111122,1111122' 
TCOON,ioos:station:TCOON:524:1,2015-09-01T14:30:00Z,29.8672,-93.9310,0.0,2.0,77.0,2.8,'11111222,11111222,11111222' 
TCOON,ioos:station:TCOON:524:1,2015-09-01T14:36:00Z,29.8672,-93.9310,0.0,2.0,69.0,2.9,'11111222,11111222,11111222' 
TCOON,ioos:station:TCOON:524:1,2015-09-01T14:42:00Z,29.8672,-93.9310,0.0,1.7,73.0,2.8,'11111222,11111222,11111222' 
TCOON,ioos:station:TCOON:524:1,2015-09-01T14:48:00Z,29.8672,-93.9310,0.0,0.9,66.0,2.5,'11111222,11111222,11111222' 
TCOON,ioos:station:TCOON:524:1,2015-09-01T14:54:00Z,29.8672,-93.9310,0.0,1.6,68.0,2.5,'11111222,11111222,11111222' 
TCOON,ioos:station:TCOON:524:1,2015-09-01T15:00:00Z,29.8672,-93.9310,0.0,1.8,63.0,3.0,'11111222,11111222,11111222' 
TCOON,ioos:station:TCOON:524:1,2015-09-01T15:06:00Z,29.8672,-93.9310,0.0,2.0,89.0,3.2,'11111222,11111222,11111222' 
TCOON,ioos:station:TCOON:524:1,2015-09-01T15:12:00Z,29.8672,-93.9310,0.0,2.7,86.0,3.8,'11111222,11111222,11111222' 
TCOON,ioos:station:TCOON:524:1,2015-09-01T15:18:00Z,29.8672,-93.9310,0.0,2.7,86.0,3.8,'1111122,1111122,1111122' 
TCOON,ioos:station:TCOON:524:1,2015-09-01T15:24:00Z,29.8672,-93.9310,0.0,2.9,101.0,4.2,'11111222,11111222,11111222' 
TCOON,ioos:station:TCOON:524:1,2015-09-01T15:30:00Z,29.8672,-93.9310,0.0,2.7,95.0,3.6,'11111222,11111222,11111222' 
TCOON,ioos:station:TCOON:524:1,2015-09-01T15:36:00Z,29.8672,-93.9310,0.0,2.8,99.0,4.2,'11111222,11111222,11111222' 
TCOON,ioos:station:TCOON:524:1,2015-09-01T15:42:00Z,29.8672,-93.9310,0.0,3.1,97.0,4.5,'11111222,11111222,11111222' 
TCOON,ioos:station:TCOON:524:1,2015-09-01T15:48:00Z,29.8672,-93.9310,0.0,3.1,102.0,4.6,'11111222,11111222,11111222' 
TCOON,ioos:station:TCOON:524:1,2015-09-01T15:54:00Z,29.8672,-93.9310,0.0,2.9,84.0,4.9,'11111222,11111222,11111222' 
TCOON,ioos:station:TCOON:524:1,2015-09-01T16:00:00Z,29.8672,-93.9310,0.0,3.0,82.0,4.0,'11111222,11111222,11111222' 
TCOON,ioos:station:TCOON:524:1,2015-09-01T16:06:00Z,29.8672,-93.9310,0.0,2.0,78.0,3.5,'11111222,11111222,11111222' 
TCOON,ioos:station:TCOON:524:1,2015-09-01T16:12:00Z,29.8672,-93.9310,0.0,1.8,69.0,3.9,'11111222,11111222,11111222' 
TCOON,ioos:station:TCOON:524:1,2015-09-01T16:18:00Z,29.8672,-93.9310,0.0,1.9,72.0,3.1,'11111222,11111222,11111222' 
TCOON,ioos:station:TCOON:524:1,2015-09-01T16:24:00Z,29.8672,-93.9310,0.0,1.9,72.0,3.1,'1111122,1111122,1111122' 
TCOON,ioos:station:TCOON:524:1,2015-09-01T16:30:00Z,29.8672,-93.9310,0.0,0.7,62.0,1.9,'11111222,11111222,11111222' 
TCOON,ioos:station:TCOON:524:1,2015-09-01T16:36:00Z,29.8672,-93.9310,0.0,1.2,68.0,2.1,'11111222,11111222,11111222' 
TCOON,ioos:station:TCOON:524:1,2015-09-01T16:42:00Z,29.8672,-93.9310,0.0,1.6,76.0,2.4,'11111222,11111222,11111222' 
TCOON,ioos:station:TCOON:524:1,2015-09-01T16:48:00Z,29.8672,-93.9310,0.0,2.4,80.0,3.9,'11111222,11111222,11111222' 
TCOON,ioos:station:TCOON:524:1,2015-09-01T16:54:00Z,29.8672,-93.9310,0.0,2.7,84.0,3.4,'11111222,11111222,11111222' 
TCOON,ioos:station:TCOON:524:1,2015-09-01T17:00:00Z,29.8672,-93.9310,0.0,2.1,75.0,3.5,'11111222,11111222,11111222' 
TCOON,ioos:station:TCOON:524:1,2015-09-01T17:06:00Z,29.8672,-93.9310,0.0,2.8,90.0,4.0,'11111222,11111222,11111222' 
TCOON,ioos:station:TCOON:524:1,2015-09-01T17:12:00Z,29.8672,-93.9310,0.0,2.5,88.0,4.3,'11111222,11111222,11111222' 
TCOON,ioos:station:TCOON:524:1,2015-09-01T17:18:00Z,29.8672,-93.9310,0.0,2.4,80.0,3.5,'11111222,11111222,11111222' 
TCOON,ioos:station:TCOON:524:1,2015-09-01T17:24:00Z,29.8672,-93.9310,0.0,2.4,80.0,3.5,'1111122,1111122,1111122' 
TCOON,ioos:station:TCOON:524:1,2015-09-01T17:30:00Z,29.8672,-93.9310,0.0,1.8,77.0,2.9,'11111222,11111222,11111222' 
TCOON,ioos:station:TCOON:524:1,2015-09-01T17:36:00Z,29.8672,-93.9310,0.0,1.5,99.0,2.7,'11111222,11111222,11111222' 
TCOON,ioos:station:TCOON:524:1,2015-09-01T17:42:00Z,29.8672,-93.9310,0.0,1.7,76.0,3.0,'11111222,11111222,11111222' 
TCOON,ioos:station:TCOON:524:1,2015-09-01T17:48:00Z,29.8672,-93.9310,0.0,1.3,109.0,2.1,'11111222,11111222,11111222' 
TCOON,ioos:station:TCOON:524:1,2015-09-01T17:54:00Z,29.8672,-93.9310,0.0,2.4,153.0,3.6,'11111222,11111222,11111222' 
TCOON,ioos:station:TCOON:524:1,2015-09-01T18:00:00Z,29.8672,-93.9310,0.0,3.2,131.0,4.6,'11111222,11111222,11111222' 
TCOON,ioos:station:TCOON:524:1,2015-09-01T18:06:00Z,29.8672,-93.9310,0.0,3.2,138.0,4.8,'11111222,11111222,11111222' 
TCOON,ioos:station:TCOON:524:1,2015-09-01T18:12:00Z,29.8672,-93.9310,0.0,3.1,142.0,4.5,'11111222,11111222,11111222' 
TCOON,ioos:station:TCOON:524:1,2015-09-01T18:18:00Z,29.8672,-93.9310,0.0,3.1,142.0,4.5,'1111122,1111122,1111122' 
TCOON,ioos:station:TCOON:524:1,2015-09-01T18:24:00Z,29.8672,-93.9310,0.0,2.2,159.0,3.1,'11111222,11111222,11111222' 
TCOON,ioos:station:TCOON:524:1,2015-09-01T18:30:00Z,29.8672,-93.9310,0.0,1.8,155.0,2.8,'11111222,11111222,11111222' 
TCOON,ioos:station:TCOON:524:1,2015-09-01T18:36:00Z,29.8672,-93.9310,0.0,1.6,151.0,2.5,'11111222,11111222,11111222' 
TCOON,ioos:station:TCOON:524:1,2015-09-01T18:42:00Z,29.8672,-93.9310,0.0,1.6,131.0,2.5,'11111222,11111222,11111222' 
TCOON,ioos:station:TCOON:524:1,2015-09-01T18:48:00Z,29.8672,-93.9310,0.0,1.9,144.0,2.7,'11111222,11111222,11111222' 
TCOON,ioos:station:TCOON:524:1,2015-09-01T18:54:00Z,29.8672,-93.9310,0.0,2.9,144.0,3.7,'11111222,11111222,11111222' 
TCOON,ioos:station:TCOON:524:1,2015-09-01T19:00:00Z,29.8672,-93.9310,0.0,3.1,147.0,4.7,'11111222,11111222,11111222' 
TCOON,ioos:station:TCOON:524:1,2015-09-01T19:06:00Z,29.8672,-93.9310,0.0,2.9,142.0,3.9,'11111222,11111222,11111222' 
TCOON,ioos:station:TCOON:524:1,2015-09-01T19:12:00Z,29.8672,-93.9310,0.0,2.3,150.0,3.5,'11111222,11111222,11111222' 
TCOON,ioos:station:TCOON:524:1,2015-09-01T19:18:00Z,29.8672,-93.9310,0.0,2.3,150.0,3.5,'1111122,1111122,1111122' 
TCOON,ioos:station:TCOON:524:1,2015-09-01T19:24:00Z,29.8672,-93.9310,0.0,2.7,143.0,3.5,'11111222,11111222,11111222' 
TCOON,ioos:station:TCOON:524:1,2015-09-01T19:30:00Z,29.8672,-93.9310,0.0,1.8,131.0,3.6,'11111222,11111222,11111222' 
TCOON,ioos:station:TCOON:524:1,2015-09-01T19:36:00Z,29.8672,-93.9310,0.0,1.2,118.0,2.0,'11111222,11111222,11111222' 
TCOON,ioos:station:TCOON:524:1,2015-09-01T19:42:00Z,29.8672,-93.9310,0.0,1.0,164.0,1.8,'11111222,11111222,11111222' 
TCOON,ioos:station:TCOON:524:1,2015-09-01T19:48:00Z,29.8672,-93.9310,0.0,1.6,148.0,2.2,'11111222,11111222,11111222' 
TCOON,ioos:station:TCOON:524:1,2015-09-01T19:54:00Z,29.8672,-93.9310,0.0,1.1,171.0,2.4,'11111222,11111222,11111222' 
TCOON,ioos:station:TCOON:524:1,2015-09-01T20:00:00Z,29.8672,-93.9310,0.0,3.4,203.0,5.8,'11111222,11111222,11111222' 
TCOON,ioos:station:TCOON:524:1,2015-09-01T20:06:00Z,29.8672,-93.9310,0.0,3.2,191.0,4.7,'11111222,11111222,11111222' 
TCOON,ioos:station:TCOON:524:1,2015-09-01T20:12:00Z,29.8672,-93.9310,0.0,3.2,191.0,4.7,'1111122,1111122,1111122' 
TCOON,ioos:station:TCOON:524:1,2015-09-01T20:18:00Z,29.8672,-93.9310,0.0,1.9,189.0,4.3,'11111222,11111222,11111222' 